User: anonymous
Location: Muenchen
(48.1800°N, 11.5800°E)
Time: 13:21:03
(UTC+02:00)
Language:

Iridium 37 - Orbit

View from above orbital plane
View from above orbital plane
View from above satellite
View from above satellite

Ground track
Ground track

The orbit data is extracted from the following two-line orbital elements,

1 24968U 97056D   14292.16457784  .00000468  00000-0  16013-3 0    45
2 24968 086.4001 005.1642 0002336 109.9581 250.1866 14.34217814893211
Epoch (UTC): 19 October 2014 03:56:59
Eccentricity: 0.0002336
inclination: 86.4001°
perigee height: 776 km
apogee height: 779 km
right ascension of ascending node: 5.1642°
argument of perigee: 109.9581°
revolutions per day: 14.34217814
mean anomaly at epoch: 250.1866°
orbit number at epoch: 89321

The dashed part of the orbit path shows where the satellite is in the earth's shadow,  

DLR